Location: ??????
(37.9009°N, 23.8723°E)
Time: 02:56:51
(UTC+00:00)

Daily predictions for brighter satellites

Satellite Brightness Start Highest point End
(mag) Time Altitude Azimuth Time Altitude Azimuth Time Altitude Azimuth
Cosmos 1072 Rocket 4.3 00:11:58 70° SSE 00:12:42 84° E 00:18:55 10° N
Resurs 1-4 Rocket 2.3 00:07:44 10° NNE 00:13:00 61° E 00:13:18 60° ESE
Cosmos 1464 Rocket 3.9 00:12:23 66° SSE 00:13:14 77° E 00:19:21 10° N
SL-16 R/B 4.1 00:15:00 10° SE 00:20:17 31° ENE 00:25:35 10° N
Cosmos 1743 4.2 00:23:34 30° NNW 00:23:34 30° NNW 00:25:35 10° N
Okean 3 Rocket 4.4 00:22:05 43° E 00:22:08 43° E 00:26:21 10° NNE
NOSS 3-4 (C) 3.2 00:21:50 64° W 00:22:15 67° NW 00:28:04 10° NNE
NOSS 3-4 (A) 3.2 00:22:21 62° WNW 00:22:45 64° NW 00:28:30 10° NNE
SJ 16-02 3.8 00:20:10 10° NW 00:20:47 13° NW 00:20:47 13° NW
NPP 3.5 00:19:54 10° N 00:25:18 76° WNW 00:25:34 74° WSW
FENGYUN 3A 4.1 00:21:53 10° NNE 00:27:13 55° E 00:28:16 47° SE
ALOS 3.7 00:23:40 10° NE 00:27:38 28° E 00:28:39 26° ESE
Cosmos 1726 4.2 00:29:51 20° N 00:29:51 20° N 00:30:54 10° N
USA 234 3.2 00:21:42 10° NE 00:28:16 89° NW 00:29:57 54° SW
NOSS 3-2 (C) 4.1 00:24:34 10° NW 00:32:22 64° WSW 00:36:31 34° S
Cosmos 1340 3.9 00:35:28 35° NNE 00:35:28 35° NNE 00:37:34 10° NNE
Cosmos 1766 Rocket 3.8 00:35:14 59° NW 00:35:14 59° NW 00:39:01 10° N
USA 32 3.8 00:31:22 10° N 00:36:37 79° W 00:36:58 74° SW
Tiangong 0.7 00:39:34 14° E 00:39:34 14° E 00:40:06 10° E
Cosmos 2219 4.3 00:37:46 10° N 00:43:11 43° ENE 00:48:35 10° SE
Cosmos 1536 3.1 00:45:29 58° E 00:45:29 58° E 00:49:22 10° NNE
CZ-2C R/B 2.8 00:41:02 10° N 00:45:45 66° WNW 00:46:01 64° W
Cosmos 371 Rocket 3.1 00:43:47 10° NNW 00:48:39 79° WSW 00:49:01 73° SSW
TRAILBLAZER 4.4 00:48:39 82° SSE 00:48:47 84° ESE 00:53:20 10° NNE
COSMOS 2441 4.2 00:44:00 10° N 00:48:54 76° WNW 00:49:27 67° SW
Cosmos 2369 3.9 00:48:12 45° SSE 00:49:48 64° ESE 00:55:27 10° NNE
Cosmos 1328 Rocket 3.7 00:46:55 10° NNW 00:50:52 57° WNW 00:50:52 57° WNW
DELTA 2 R/B (1) 3.4 00:48:59 32° WNW 00:51:40 85° SSW 00:57:14 10° ESE
Cosmos 1707 3.2 00:49:12 10° N 00:52:45 49° E 00:53:00 48° E
Cosmos 2263 Rocket 3.5 00:48:43 10° N 00:53:58 39° ENE 00:59:13 10° SE
Cosmos 1842 3.2 00:53:20 10° N 00:56:51 74° NE 00:56:51 74° NE
AQUA 3.8 00:52:45 10° NNE 00:57:29 78° ESE 00:58:31 54° S
ATLAS 5 CENTAUR R/B 2.4 00:52:25 10° NNW 00:57:36 71° ENE 01:04:00 10° SE
Cosmos 1500 Rocket 4.2 01:01:34 35° SE 01:02:59 51° E 01:07:16 10° NNE
Cosmos 1697 Rocket 3.7 01:03:00 29° W 01:04:20 32° WNW 01:09:22 10° N
Cosmos 1733 2.9 01:08:32 74° ESE 01:08:37 74° E 01:12:08 10° N
Cosmos 2227 Rocket 2.2 01:04:35 10° NNW 01:10:06 58° WSW 01:11:58 39° SSW
Meteor 1-28 Rocket 3.0 01:10:35 65° SE 01:11:01 80° ENE 01:14:38 10° N
CZ-3C R/B 4.4 01:07:56 11° SSE 01:13:48 19° SE 01:35:10 10° E
Cosmos 1503 Rocket 3.8 01:09:55 10° NNW 01:15:06 82° WSW 01:18:23 23° SSE
Cosmos 540 Rocket 4.2 01:14:47 24° SSE 01:17:36 47° ESE 01:22:31 10° NNE
Cosmos 2297 Rocket 3.7 01:20:33 10° NW 01:23:36 19° W 01:23:36 19° W
RESURS DK-1 2.2 01:25:07 50° SSW 01:26:07 85° WNW 01:30:11 10° NNE
Cosmos 1805 Rocket 3.5 01:27:42 33° S 01:29:39 88° E 01:34:06 10° N
SAR-Lupe-1 4.5 01:26:13 10° NNE 01:29:44 58° E 01:31:09 32° SSE
CZ-2C R/B 3.8 01:30:35 25° W 01:30:58 25° W 01:35:32 10° NW
H-2A R/B 4.5 01:30:41 10° NE 01:33:43 16° E 01:36:46 10° SE
Cosmos 2082 3.8 01:28:42 10° NNW 01:34:24 77° ENE 01:40:05 10° SSE
CZ-2D R/B 3.4 01:30:43 10° NNW 01:34:51 25° WNW 01:36:29 21° W
Cosmos 2333 Rocket 4.5 01:31:28 10° SE 01:35:18 19° E 01:39:09 10° ENE
Atlas Centaur 2 3.3 01:32:25 26° SW 01:36:56 49° S 01:44:37 10° ESE
IDEFIX/ARIANE 42P 4.4 01:34:45 10° NNW 01:37:35 15° WNW 01:39:06 13° W
Envisat 3.1 01:32:44 10° NNE 01:37:49 77° ESE 01:41:21 20° S
USA 238 DEB 4.3 01:31:56 10° NW 01:39:00 43° WSW 01:46:25 10° S
USA 238 4.3 01:32:02 10° NW 01:39:06 44° WSW 01:46:33 10° S
Sich 1 2.9 01:37:22 34° SSW 01:39:06 68° W 01:43:22 10° N
SL-4 R/B 2.2 01:38:41 35° S 01:39:51 50° SE 01:43:22 10° ENE
Cosmos 1980 Rocket 3.0 01:37:23 25° WSW 01:39:52 36° WNW 01:45:05 10° N
ADEOS II 3.0 01:35:21 10° N 01:39:59 33° WNW 01:42:00 24° WSW
Cosmos 1408 Rocket 4.1 01:39:49 33° WSW 01:41:00 40° W 01:45:05 10° N
CZ-4 R/B 4.3 01:37:03 10° NNE 01:41:54 58° E 01:45:57 14° S
Meteor 2-10 4.1 01:41:14 29° SW 01:43:35 53° WNW 01:48:31 10° N
SAR-Lupe-4 3.5 01:43:18 10° N 01:46:50 68° WNW 01:48:16 33° SSW
ASTRO E2 3.5 01:48:08 26° S 01:48:08 26° S 01:50:49 10° SE
SL-16 R/B 2.5 01:46:46 15° S 01:51:20 63° ESE 01:56:57 10° NNE
Resurs 1-4 Rocket 3.9 01:49:00 10° NNW 01:52:14 17° WNW 01:54:21 13° W
Cosmos 332 Rocket 4.0 01:51:17 10° NNW 01:55:52 48° WSW 02:00:20 10° S
NOAA 11 4.1 01:51:31 10° N 01:56:57 79° WNW 02:01:27 15° SSW
Cosmos 2026 Rocket 4.4 01:51:43 10° NNW 01:57:38 44° W 02:02:32 15° SSW
In-Cosmos 22 4.4 01:52:56 10° NNW 01:58:15 50° W 02:03:21 12° SSW
Cosmos 2084 3.0 01:54:58 10° NW 01:58:43 65° WSW 02:02:29 10° SSE
IRAS Rocket 4.3 01:53:53 10° N 01:59:28 72° WNW 02:04:02 16° SSW
Cosmos 1315 Rocket 3.6 01:56:16 10° N 02:00:00 50° E 02:03:42 10° SSE
Cosmos 1400 Rocket 4.1 01:57:31 10° NW 02:00:35 22° W 02:01:12 21° WSW
Cosmos 1356 Rocket 3.5 01:57:10 10° NNW 02:00:58 49° W 02:03:48 17° SSW
Cosmos 1242 Rocket 2.7 01:59:13 10° N 02:01:38 43° E 02:04:02 10° SSE
SL-16 R/B 3.0 01:58:47 14° SSW 02:03:40 39° W 02:09:24 10° NNW
ALOS 3.5 02:00:53 10° NNW 02:04:41 26° WNW 02:06:55 18° WSW
Cosmos 2180 Rocket 4.4 01:59:06 10° S 02:05:14 84° W 02:11:28 10° N
Cosmos 2322 Rocket 2.9 02:00:57 10° S 02:06:21 51° ESE 02:11:50 10° NNE
IRS-1D 3.9 02:02:31 10° NNE 02:07:25 63° ESE 02:12:21 10° S
Cosmos 1805 3.8 02:07:23 22° SW 02:09:11 36° W 02:12:36 10° N
TIMED 4.4 02:08:11 10° NNW 02:12:29 75° WSW 02:16:46 10° S
Tiangong -1.3 02:12:08 18° W 02:13:56 32° SSW 02:16:52 10° SE
Cosmos 1975 2.9 02:11:24 16° SSW 02:14:13 53° W 02:17:59 10° N
Cosmos 468 Rocket 4.3 02:13:33 16° SW 02:17:39 52° WNW 02:22:43 10° N
CZ-2C R/B 2.5 02:14:03 10° N 02:19:03 71° WNW 02:24:08 10° SSW
Meteor 1-4 Rocket 3.0 02:17:28 10° NW 02:19:54 25° W 02:21:09 18° SW
NOSS 2-2 (D) 4.2 02:16:15 10° NW 02:21:05 79° WSW 02:28:00 10° SSE
Cosmos 1763 Rocket 4.5 02:18:08 15° WSW 02:21:44 31° WNW 02:26:21 10° N
Cosmos 1633 Rocket 3.0 02:19:56 10° S 02:24:17 88° W 02:28:39 10° N
SL-8 R/B 3.9 02:21:53 10° WNW 02:26:29 46° SW 02:31:03 10° SSE
Cosmos 2219 4.3 02:22:32 10° NW 02:26:59 24° W 02:31:28 10° SSW
Thor Agena Rocket 3.6 02:23:48 10° NNE 02:28:56 83° ESE 02:33:58 10° SSW
Cosmos 2360 Rocket 2.6 02:24:51 10° S 02:30:25 64° ESE 02:36:02 10° NNE
Aureole 1 Rocket 4.4 02:23:22 10° NNW 02:31:15 88° WSW 02:38:01 10° SSE
BREEZE-M DEB (TANK) 3.4 02:22:53 10° NW 02:34:07 51° SW 02:37:22 10° SSE
Okean 1-7 4.2 02:31:37 10° N 02:35:39 45° E 02:39:41 10° SSE
Cosmos 2263 Rocket 3.1 02:33:02 10° NW 02:37:37 26° WSW 02:42:14 10° SSW
DELTA 2 R/B (1) 4.2 02:32:46 10° W 02:37:44 33° SSW 02:42:40 10° SSE
Cosmos 2228 Rocket 3.2 02:34:34 10° NNW 02:38:52 55° W 02:43:07 10° S
Cosmos 1844 Rocket 3.4 02:35:33 10° NNW 02:41:07 60° ENE 02:46:41 10° SE
ATLAS 5 CENTAUR R/B 3.6 02:37:29 10° WNW 02:41:14 18° WSW 02:45:26 10° SSW
Cosmos 1484 Rocket 3.7 02:38:06 10° NNE 02:41:34 45° E 02:44:59 10° S
BREEZE-M DEB (TANK) 2.8 02:42:41 10° WSW 02:45:36 59° NNW 02:49:15 10° ENE
Cosmos 2227 4.2 02:44:30 10° NNW 02:50:08 66° WSW 02:55:42 10° S
YAOGAN 6 3.9 02:50:49 10° NNW 02:53:15 20° WNW 02:55:40 10° WSW
GEOS 3 Rocket 3.7 02:49:01 10° NE 02:54:09 78° SE 02:59:13 10° SSW
Okean 3 3.5 02:51:44 10° NNW 02:55:44 52° W 02:59:42 10° S
